Location: Newark
(11.2914°S, 14.4718°E)
Time: 10:16:28
(UTC+00:00)

Tiros 1 despin weight - Pass Details

Date: 25 September 2019
Orbit: 594 x 643 km, 48.2° (Epoch: 14 October)

Event Time Altitude Azimuth Distance (km) Brightness Sun altitude
Rises 05:03:22 0° 210° (SSW) 2,948 ? 2.4°
Reaches altitude 10° 05:05:50 10° 202° (SSW) 2,038 ? 3.0°
Maximum altitude 05:10:15 40° 132° (SE) 949 ? 4.1°
Drops below altitude 10° 05:14:38 10° 62° (ENE) 2,024 ? 5.2°
Sets 05:17:04 0° 55° (NE) 2,925 ? 5.8°
